Weather History for Wittering, United Kingdom

Change the Weather History Date:

Monday, January 28, 2013

  Actual Average Record
Temperature  
Mean Temperature 42 °F -  
Max Temperature 50 °F 44 °F 55 °F (2002)
Min Temperature 33 °F 34 °F 24 °F (1998)
Degree Days  
Heating Degree Days 24    
Moisture  
Dew Point 38 °F    
Average Humidity 81    
Maximum Humidity 93    
Minimum Humidity 67    
Precipitation  
Precipitation 0.04 in - - ()
Sea Level Pressure  
Sea Level Pressure 29.55 in    
Wind  
Wind Speed 18 mph ()    
Max Wind Speed 31 mph    
Max Gust Speed 47 mph    
Visibility 6.5 miles    
Events Rain , Snow    
Averages and records for this station are not official NWS values.
T = Trace of Precipitation, MM = Missing Value Source: Averaged Metar Reports

Daily Weather History Graph

Daily Weather History Graph

Search for Another Location

Airport:

Trip Planner

Search our weather history database for the weather conditions in past years. The results will help you decide how hot, cold, wet, or windy it might be!

Date:

Astronomy

Jan. 28, 2013 Rise Set
Actual Time 7:49 AM GMT 4:40 PM GMT
Civil Twilight 7:12 AM GMT 5:18 PM GMT
Nautical Twilight 6:30 AM GMT 5:59 PM GMT
Astronomical Twilight 5:50 AM GMT 6:40 PM GMT
Moon 6:40 PM GMT (1/28) 7:50 AM GMT (1/28)
Length of Visible Light 10h 06m
Length of Day
8h 50m
Full, 98% of the Moon is Illuminated
Jan 28
Full
Feb 3
Last Quarter
Feb 10
New
Feb 17
First Quarter
Feb 25
Full

Hourly Weather History & Observations

Time (GMT) Temp. Windchill Dew Point Humidity Pressure Visibility Wind Dir Wind Speed Gust Speed Precip Events Conditions
12:50 AM 37.4 °F 28.2 °F 33.8 °F 87% 29.53 in 6.2 mi SW 16.1 mph - N/A   Partly Cloudy
1:50 AM 37.4 °F 28.9 °F 33.8 °F 87% 29.56 in 6.2 mi SW 13.8 mph - N/A   Unknown
2:50 AM 38 °F - 34 °F 79% 29.61 in 40 mi SW 19.6 mph - -  
2:50 AM 37.4 °F 27.2 °F 33.8 °F 87% 29.59 in 6.2 mi SW 19.6 mph - N/A   Unknown
3:50 AM 37.4 °F 27.2 °F 33.8 °F 87% 29.62 in 6.2 mi WSW 19.6 mph - N/A   Unknown
4:50 AM 37.4 °F 28.5 °F 32.0 °F 81% 29.62 in 6.2 mi SW 15.0 mph - N/A   Unknown
5:50 AM 38 °F - 33 °F 74% 29.66 in 31 mi WSW 19.6 mph - -  
5:50 AM 37.4 °F 27.2 °F 32.0 °F 81% 29.65 in 6.2 mi WSW 19.6 mph - N/A   Unknown
6:50 AM 39.2 °F 30.2 °F 32.0 °F 75% 29.65 in 6.2 mi WSW 17.3 mph - N/A   Unknown
7:50 AM 33.8 °F 24.8 °F 32.0 °F 93% 29.68 in 6.2 mi SSW 12.7 mph - N/A   Unknown
8:50 AM 36 °F - 33 °F 83% 29.73 in 22 mi South 13.8 mph - -  
8:50 AM 35.6 °F 26.6 °F 32.0 °F 87% 29.71 in 6.2 mi South 13.8 mph - N/A   Unknown
9:50 AM 39.2 °F 29.8 °F 33.8 °F 81% 29.71 in 6.2 mi SW 18.4 mph - N/A   Partly Cloudy
10:50 AM 39.2 °F 31.2 °F 35.6 °F 87% 29.68 in 6.2 mi SSW 13.8 mph - N/A   Scattered Clouds
11:50 AM 42 °F - 36 °F 73% 29.70 in 22 mi SSW 23.0 mph - -   Scattered Clouds
11:50 AM 42.8 °F 33.5 °F 35.6 °F 76% 29.68 in 6.2 mi SSW 23.0 mph - N/A   Partly Cloudy
12:50 PM 42.8 °F 33.8 °F 37.4 °F 81% 29.65 in 6.2 mi SSW 21.9 mph - N/A Rain Light Rain Showers
1:50 PM 42.8 °F 33.1 °F 39.2 °F 87% 29.59 in 6.2 mi South 25.3 mph - N/A Rain Light Rain
2:50 PM 44 °F - 40 °F 80% 29.53 in 22 mi South 25.3 mph - - Rain Light Rain
2:50 PM 44.6 °F 35.5 °F 39.2 °F 81% 29.50 in 6.2 mi South 25.3 mph - N/A Rain Light Rain
3:50 PM 46.4 °F 37.0 °F 41.0 °F 81% 29.44 in 6.2 mi South 31.1 mph 47.2 mph N/A Rain Light Rain Showers
4:50 PM 46.4 °F 37.0 °F 42.8 °F 87% 29.39 in 4.3 mi South 31.1 mph - N/A Rain Light Rain
5:50 PM 48 °F - 46 °F 88% 29.37 in 44 mi SSW 28.8 mph - - Snow Rain
5:50 PM 48.2 °F - 46.4 °F 93% 29.36 in 6.2 mi SSW 28.8 mph 42.6 mph N/A   Mostly Cloudy
6:50 PM 50.0 °F - 44.6 °F 82% 29.39 in 6.2 mi SW 23.0 mph - N/A   Scattered Clouds
7:50 PM 50.0 °F - 42.8 °F 76% 29.39 in 6.2 mi SW 26.5 mph - N/A   Scattered Clouds
8:50 PM 49 °F - 42 °F 69% 29.42 in 12 mi SW 24.2 mph - -   Scattered Clouds
8:50 PM 50.0 °F - 42.8 °F 76% 29.39 in 6.2 mi SW 24.2 mph - N/A   Partly Cloudy
9:50 PM 50.0 °F - 41.0 °F 71% 29.42 in 6.2 mi SW 26.5 mph - N/A   Mostly Cloudy
10:50 PM 50.0 °F - 41.0 °F 71% 29.42 in 6.2 mi SW 25.3 mph - N/A   Overcast
11:50 PM 49 °F - 42 °F 67% 29.47 in 10 mi SW 28.8 mph - -   Overcast
11:50 PM 50.0 °F - 41.0 °F 71% 29.44 in 6.2 mi SW 28.8 mph - N/A   Overcast